{"data":{"norad_id":65535,"intl_designator":"2025-200R","name":"STARLINK-35133","alt_names":[],"object_type":"PAYLOAD","status":"ACTIVE","operator":null,"country":"US","launch_date":"2025-09-06","launch_site_code":"AFWTR","launch_vehicle":null,"mission":null,"orbit_class":"UNKNOWN","rcs_meters":null,"size_class":null,"mass_kg":null,"dimensions":null,"purposes":["comms"],"wikipedia_slug":null,"has_3d_model":false,"image_url":null,"decayed_at":null,"tle_current":{"epoch":"2026-05-25T02:49:48.300096Z","epoch_age_seconds":60897,"freshness":"FRESH","line1":"1 65535U 25200R   26145.11792014  .00005473  00000+0  38295-3 0  9994","line2":"2 65535  97.4485 214.8051 0002579 118.8244 241.3242 15.05663950 40636","mean_motion":15.0566395,"eccentricity":0.0002579,"inclination_deg":97.4485,"raan_deg":214.8051,"arg_perigee_deg":118.8244,"mean_anomaly_deg":241.3242,"bstar":0.00038295,"rev_number":4063,"period_min":95.638870811777,"perigee_km":547.6817347041,"apogee_km":551.25499355092,"semimajor_km":6927.6053641275,"source":"CELESTRAK","updated_at":"2026-05-25T13:38:20.849408Z"}}}